Cosmos 389 Rocket - Orbit

View from above orbital plane
View from above orbital plane
View from above satellite
View from above satellite

Ground track
Ground track

The orbit data is extracted from the following two-line orbital elements,

1 04814U 70113B   13137.78681152  .00004365  00000-0  20192-3 0  1900
2 04814 081.1495 358.1195 0036964 108.2547 252.2711 15.19298254306896
Epoch (UTC): 17 May 2013 18:53:00
Eccentricity: 0.0036964
inclination: 81.1495°
perigee height: 482 km
apogee height: 533 km
right ascension of ascending node: 358.1195°
argument of perigee: 108.2547°
revolutions per day: 15.19298254
mean anomaly at epoch: 252.2711°
orbit number at epoch: 30689

The dashed part of the orbit path shows where the satellite is in the earth's shadow,  

Developed and maintained by Chris Peat, Heavens-Above GmbH. Please read the updated FAQ before sending e-mail. Imprint. DLR